Location: Laterina
(43.5167°N, 11.7167°E)
Time: 01:53:01
(UTC+00:00)

STRAND 1 - Visible Passes

Search period start: 27 February 2021 00:00
Search period end: 09 March 2021 00:00
Orbit: 769 x 780 km, 98.4° (Epoch: 26 February)

Date Brightness Start Highest point End Pass type
(mag) Time Alt. Az. Time Alt. Az. Time Alt. Az.
27 Feb ? 04:31:42 10° ESE 04:35:43 24° ENE 04:39:46 10° NNE visible
27 Feb ? 18:18:33 10° NNE 18:23:37 54° E 18:28:37 10° S visible
27 Feb ? 19:58:37 10° NNW 20:02:22 21° WNW 20:06:08 10° WSW visible
28 Feb ? 04:00:01 10° E 04:02:06 12° ENE 04:04:12 10° NNE visible
28 Feb ? 17:45:01 10° NE 17:49:21 27° E 17:53:38 10° SSE visible
28 Feb ? 19:23:51 10° N 19:28:37 39° WNW 19:33:21 10° SW visible
01 Mar ? 05:01:42 10° SE 05:06:32 42° ENE 05:11:23 10° N visible
01 Mar ? 18:49:31 10° N 18:54:42 79° WNW 18:59:48 10° SSW visible
01 Mar ? 20:31:20 10° NW 20:33:00 12° WNW 20:34:40 10° WNW visible
02 Mar ? 04:28:50 10° ESE 04:32:45 22° ENE 04:36:41 10° NNE visible
02 Mar ? 18:15:34 10° NNE 18:20:36 51° E 18:25:34 10° S visible
02 Mar ? 19:55:32 10° NNW 19:59:24 22° WNW 20:03:16 10° WSW visible
03 Mar ? 03:57:22 10° ENE 03:59:09 12° ENE 04:00:56 10° NE visible
03 Mar ? 17:42:06 10° NE 17:46:19 25° E 17:50:30 10° SSE visible
03 Mar ? 19:20:49 10° N 19:25:38 42° WNW 19:30:25 10° SW visible
04 Mar ? 04:58:46 10° SE 05:03:32 40° ENE 05:08:20 10° N visible
04 Mar ? 18:46:31 10° NNE 18:51:41 84° WNW 18:56:48 10° SSW visible
04 Mar ? 20:28:03 10° NW 20:30:02 12° WNW 20:32:02 10° W visible
05 Mar ? 04:25:58 10° ESE 04:29:46 21° ENE 04:33:35 10° NNE visible
05 Mar ? 18:12:35 10° NNE 18:17:34 48° E 18:22:29 10° S visible
05 Mar ? 19:52:26 10° NNW 19:56:25 23° WNW 20:00:23 10° WSW visible
06 Mar ? 03:54:46 10° ENE 03:56:11 11° NE 03:57:36 10° NE visible
06 Mar ? 17:39:10 10° NE 17:43:17 24° E 17:47:21 10° SSE visible
06 Mar ? 19:17:46 10° N 19:22:38 44° WNW 19:27:28 10° SW visible
07 Mar ? 04:55:50 10° SE 05:00:33 38° ENE 05:05:17 10° N visible
07 Mar ? 18:43:30 10° NNE 18:48:41 89° WNW 18:53:48 10° SSW visible
07 Mar ? 20:24:49 10° NNW 20:27:04 13° WNW 20:29:19 10° W visible
08 Mar ? 04:23:07 10° ESE 04:26:48 20° ENE 04:30:29 10° NNE visible
08 Mar ? 18:09:37 10° NNE 18:14:32 45° E 18:19:25 10° S visible
08 Mar ? 19:49:22 10° N 19:53:27 24° WNW 19:57:30 10° WSW visible
